• Em Portugal
  • Lista de países
  • Para 7 dias
  • Temperatura da água
  • Mapas de satélite
  • Mapa do tempo
  • Widgets de tempo
  • user-avatar
    Iniciar Sessão

    Previsão horária em Mendoza

    Hoje, 21 Julho, Sábado

    Tempo Temperatura Precipitação Vento Pressão Humidade
    00:00 +6°C° 0 mm 2 m/s 699 mmHg 37%
    01:00 +6°C° 0 mm 2 m/s 699 mmHg 37%
    02:00 +6°C° 0 mm 2 m/s 698 mmHg 37%
    03:00 +5°C° 0 mm 2 m/s 698 mmHg 38%
    04:00 +5°C° 0 mm 2 m/s 697 mmHg 38%
    05:00 +5°C° 0 mm 2 m/s 697 mmHg 38%
    06:00 +5°C° 0 mm 2 m/s 697 mmHg 38%
    07:00 +5°C° 0 mm 2 m/s 696 mmHg 38%
    08:00 +7°C° 0 mm 3 m/s 696 mmHg 34%
    09:00 +10°C° 0 mm 3 m/s 696 mmHg 29%
    10:00 +12°C° 0 mm 4 m/s 696 mmHg 24%
    11:00 +14°C° 0 mm 4 m/s 695 mmHg 22%
    12:00 +15°C° 0 mm 4 m/s 694 mmHg 20%
    13:00 +16°C° 0 mm 5 m/s 693 mmHg 17%
    14:00 +17°C° 0 mm 4 m/s 693 mmHg 17%
    15:00 +17°C° 0 mm 3 m/s 693 mmHg 17%
    16:00 +17°C° 0 mm 2 m/s 692 mmHg 17%
    17:00 +14°C° 0 mm 3 m/s 692 mmHg 19%
    18:00 +13°C° 0 mm 3 m/s 692 mmHg 21%
    19:00 +11°C° 0 mm 3 m/s 692 mmHg 22%
    20:00 +11°C° 0 mm 3 m/s 692 mmHg 23%
    21:00 +10°C° 0 mm 3 m/s 692 mmHg 24%
    22:00 +10°C° 0 mm 3 m/s 693 mmHg 25%
    23:00 +9°C° 0 mm 3 m/s 693 mmHg 26%

    Amanhã, 22 Julho, Domingo

    Tempo Temperatura Precipitação Vento Pressão Humidade
    00:00 +8°C° 0 mm 4 m/s 693 mmHg 27%
    01:00 +8°C° 0 mm 4 m/s 694 mmHg 28%
    02:00 +8°C° 0 mm 5 m/s 694 mmHg 30%
    03:00 +7°C° 0 mm 6 m/s 695 mmHg 31%
    04:00 +6°C° 0 mm 7 m/s 695 mmHg 32%
    05:00 +5°C° 0 mm 7 m/s 697 mmHg 40%
    06:00 +4°C° 0 mm 6 m/s 698 mmHg 47%
    07:00 +3°C° 0 mm 6 m/s 699 mmHg 54%
    08:00 +5°C° 0 mm 5 m/s 699 mmHg 53%
    09:00 +6°C° 0 mm 5 m/s 700 mmHg 52%
    10:00 +7°C° 0 mm 5 m/s 701 mmHg 51%
    11:00 +7°C° 0 mm 4 m/s 700 mmHg 48%
    12:00 +8°C° 0 mm 4 m/s 700 mmHg 46%
    13:00 +10°C° 0 mm 4 m/s 700 mmHg 43%
    14:00 +8°C° 0 mm 4 m/s 700 mmHg 44%
    15:00 +9°C° 0 mm 3 m/s 700 mmHg 45%
    16:00 +9°C° 0 mm 3 m/s 701 mmHg 45%
    17:00 +8°C° 0 mm 3 m/s 702 mmHg 48%
    18:00 +7°C° 0 mm 2 m/s 703 mmHg 51%
    19:00 +6°C° 0 mm 2 m/s 704 mmHg 54%
    20:00 +5°C° 0 mm 2 m/s 704 mmHg 56%
    21:00 +5°C° 0 mm 2 m/s 705 mmHg 57%
    22:00 +4°C° 0 mm 2 m/s 706 mmHg 58%
    23:00 +4°C° 0 mm 2 m/s 706 mmHg 57%

    Depois de amanhã, 23 Julho, Segunda-feira

    Tempo Temperatura Precipitação Vento Pressão Humidade
    00:00 +3°C° 0 mm 2 m/s 706 mmHg 55%
    01:00 +3°C° 0 mm 2 m/s 706 mmHg 54%
    02:00 +2°C° 0 mm 2 m/s 706 mmHg 53%
    03:00 +2°C° 0 mm 2 m/s 706 mmHg 52%
    04:00 +2°C° 0 mm 2 m/s 706 mmHg 51%
    05:00 +2°C° 0 mm 2 m/s 706 mmHg 49%
    06:00 +2°C° 0 mm 2 m/s 706 mmHg 48%
    07:00 +2°C° 0 mm 2 m/s 706 mmHg 47%
    08:00 +3°C° 0 mm 2 m/s 706 mmHg 43%
    09:00 +5°C° 0 mm 2 m/s 706 mmHg 39%
    10:00 +6°C° 0 mm 2 m/s 705 mmHg 35%
    11:00 +7°C° 0 mm 2 m/s 705 mmHg 34%
    12:00 +8°C° 0 mm 2 m/s 704 mmHg 33%
    13:00 +8°C° 0 mm 2 m/s 703 mmHg 32%
    14:00 +8°C° 0 mm 2 m/s 703 mmHg 33%
    15:00 +8°C° 0 mm 2 m/s 703 mmHg 34%
    16:00 +8°C° 0 mm 2 m/s 702 mmHg 34%
    17:00 +7°C° 0 mm 2 m/s 703 mmHg 37%
    18:00 +6°C° 0 mm 2 m/s 703 mmHg 39%
    19:00 +5°C° 0 mm 2 m/s 703 mmHg 41%
    20:00 +5°C° 0 mm 2 m/s 703 mmHg 42%
    21:00 +5°C° 0 mm 2 m/s 703 mmHg 43%
    22:00 +4°C° 0 mm 2 m/s 703 mmHg 44%
    23:00 +4°C° 0 mm 2 m/s 702 mmHg 45%

    24 Julho, Terça-feira

    Tempo Temperatura Precipitação Vento Pressão Humidade
    00:00 +4°C° 0 mm 2 m/s 702 mmHg 45%
    01:00 +3°C° 0 mm 2 m/s 702 mmHg 46%
    02:00 +3°C° 0 mm 2 m/s 701 mmHg 46%
    03:00 +3°C° 0 mm 2 m/s 701 mmHg 46%
    04:00 +3°C° 0 mm 2 m/s 701 mmHg 46%
    05:00 +3°C° 0 mm 2 m/s 701 mmHg 46%
    06:00 +3°C° 0 mm 2 m/s 701 mmHg 46%
    07:00 +3°C° 0 mm 2 m/s 701 mmHg 45%
    08:00 +4°C° 0 mm 2 m/s 702 mmHg 41%
    09:00 +6°C° 0 mm 2 m/s 702 mmHg 36%
    10:00 +8°C° 0 mm 2 m/s 702 mmHg 32%
    11:00 +9°C° 0 mm 2 m/s 701 mmHg 30%
    12:00 +10°C° 0 mm 2 m/s 701 mmHg 29%
    13:00 +12°C° 0 mm 2 m/s 701 mmHg 27%
    14:00 +10°C° 0 mm 2 m/s 701 mmHg 27%
    15:00 +10°C° 0 mm 2 m/s 701 mmHg 28%
    16:00 +11°C° 0 mm 1 m/s 701 mmHg 28%
    17:00 +10°C° 0 mm 1 m/s 702 mmHg 30%
    18:00 +9°C° 0 mm 1 m/s 702 mmHg 33%
    19:00 +8°C° 0 mm 1 m/s 703 mmHg 35%
    20:00 +8°C° 0 mm 1 m/s 703 mmHg 35%
    21:00 +7°C° 0 mm 1 m/s 703 mmHg 35%
    22:00 +7°C° 0 mm 1 m/s 703 mmHg 35%
    23:00 +7°C° 0 mm 1 m/s 702 mmHg 35%

    25 Julho, Quarta-feira

    Tempo Temperatura Precipitação Vento Pressão Humidade
    00:00 +6°C° 0 mm 1 m/s 702 mmHg 36%
    01:00 +6°C° 0 mm 1 m/s 702 mmHg 37%
    02:00 +6°C° 0 mm 1 m/s 702 mmHg 38%
    03:00 +5°C° 0 mm 1 m/s 701 mmHg 40%
    04:00 +5°C° 0 mm 1 m/s 701 mmHg 41%
    05:00 +5°C° 0 mm 1 m/s 701 mmHg 41%
    06:00 +5°C° 0 mm 1 m/s 701 mmHg 42%
    07:00 +5°C° 0 mm 1 m/s 701 mmHg 42%
    08:00 +8°C° 0 mm 1 m/s 701 mmHg 37%
    09:00 +9°C° 0 mm 2 m/s 702 mmHg 33%
    10:00 +12°C° 0 mm 2 m/s 702 mmHg 28%
    11:00 +13°C° 0 mm 2 m/s 701 mmHg 27%
    12:00 +13°C° 0 mm 3 m/s 700 mmHg 27%
    13:00 +14°C° 0 mm 3 m/s 699 mmHg 26%
    14:00 +13°C° 0 mm 3 m/s 699 mmHg 27%
    15:00 +13°C° 0 mm 3 m/s 699 mmHg 28%
    16:00 +14°C° 0 mm 2 m/s 698 mmHg 29%
    17:00 +13°C° 0 mm 2 m/s 699 mmHg 32%
    18:00 +10°C° 0 mm 2 m/s 699 mmHg 35%
    19:00 +9°C° 0 mm 2 m/s 699 mmHg 37%
    20:00 +9°C° 0 mm 2 m/s 699 mmHg 38%
    21:00 +8°C° 0 mm 2 m/s 699 mmHg 39%
    22:00 +8°C° 0 mm 2 m/s 699 mmHg 40%
    23:00 +8°C° 0 mm 2 m/s 698 mmHg 42%

    26 Julho, Quinta-feira

    Tempo Temperatura Precipitação Vento Pressão Humidade
    00:00 +7°C° 0 mm 2 m/s 698 mmHg 43%
    01:00 +7°C° 0 mm 3 m/s 698 mmHg 45%
    02:00 +7°C° 0 mm 3 m/s 698 mmHg 46%
    03:00 +5°C° 0 mm 3 m/s 698 mmHg 48%
    04:00 +5°C° 0 mm 3 m/s 698 mmHg 49%
    05:00 +5°C° 0 mm 3 m/s 698 mmHg 49%
    06:00 +5°C° 0 mm 3 m/s 699 mmHg 48%
    07:00 +5°C° 0 mm 3 m/s 699 mmHg 48%
    08:00 +8°C° 0 mm 3 m/s 699 mmHg 43%
    09:00 +10°C° 0 mm 3 m/s 699 mmHg 38%
    10:00 +12°C° 0 mm 3 m/s 699 mmHg 33%
    11:00 +13°C° 0 mm 3 m/s 698 mmHg 31%
    12:00 +14°C° 0 mm 3 m/s 698 mmHg 29%
    13:00 +16°C° 0 mm 3 m/s 697 mmHg 27%
    14:00 +16°C° 0 mm 3 m/s 698 mmHg 27%
    15:00 +16°C° 0 mm 3 m/s 698 mmHg 27%
    16:00 +16°C° 0 mm 3 m/s 698 mmHg 27%
    17:00 +13°C° 0 mm 3 m/s 699 mmHg 30%
    18:00 +11°C° 0 mm 3 m/s 699 mmHg 34%
    19:00 +10°C° 0 mm 3 m/s 700 mmHg 37%
    20:00 +9°C° 0 mm 3 m/s 700 mmHg 38%
    21:00 +9°C° 0 mm 3 m/s 700 mmHg 39%
    22:00 +8°C° 0 mm 3 m/s 700 mmHg 40%
    23:00 +8°C° 0 mm 3 m/s 700 mmHg 41%
    Mostrar mais